Alabaster, AL

1:25 AM CST on January 22, 2018 (GMT -0600)
Shelby County

Weather History for KEET - October, 2013

Change the Weather History Date:

Sunday, October 27, 2013

  Actual Average Record
Temperature  
Mean Temperature 60 °F 60 °F  
Max Temperature 73 °F 72 °F 85 °F (2014)
Min Temperature 46 °F 49 °F 22 °F (1982)
Degree Days  
Heating Degree Days 5 6  
Month to date heating degree days 73 89  
Since 1 July heating degree days 73 96  
Cooling Degree Days 0 2  
Month to date cooling degree days 119 76  
Year to date cooling degree days 1970 1960  
Growing Degree Days 8 (Base 50)    
Moisture  
Dew Point 49 °F    
Average Humidity 67    
Maximum Humidity 93    
Minimum Humidity 41    
Precipitation  
Precipitation 0.01 in 0.11 in 1.36 in (2010)
Month to date precipitation 1.74 2.58  
Year to date precipitation 51.86 44.49  
Snow  
Snow 0.00 in - - ()
Month to date snowfall 0.0  
Since 1 July snowfall 0.0  
Since 1 September snowfall 0.0  
Snow Depth 0.00 in    
Sea Level Pressure  
Sea Level Pressure 30.14 in    
Wind  
Wind Speed 2 mph (SW)    
Max Wind Speed 9 mph    
Max Gust Speed 14 mph    
Visibility 10 miles    
Events Rain    
T = Trace of Precipitation, MM = Missing Value Source: NWS Daily Summary

Daily Weather History Graph

Daily Weather History Graph

Search for Another Location

Airport or City:

Trip Planner

Search our weather history database for the weather conditions in past years. The results will help you decide how hot, cold, wet, or windy it might be!

Date:

Astronomy

Oct. 27, 2013 Rise Set
Actual Time 7:01 AM CDT 6:00 PM CDT
Civil Twilight 6:35 AM CDT 6:25 PM CDT
Nautical Twilight 6:06 AM CDT 6:54 PM CDT
Astronomical Twilight 5:38 AM CDT 7:23 PM CDT
Moon 12:18 AM CDT (10/27) 1:50 PM CDT (10/27)
Length of Visible Light 11h 49m
Length of Day
10h 58m
Last Quarter, 43% of the Moon is Illuminated
Oct 27
Last Quarter
Nov 3
New
Nov 9
First Quarter
Nov 17
Full
Nov 25
Last Quarter

Hourly Weather History & Observations

Time (CDT) Temp. Dew Point Humidity Pressure Visibility Wind Dir Wind Speed Gust Speed Precip Events Conditions
12:53 AM 48.0 °F 43.0 °F 83% 30.16 in 10.0 mi Calm Calm - N/A   Mostly Cloudy
1:53 AM 46.9 °F 43.0 °F 86% 30.14 in 10.0 mi Calm Calm - N/A   Clear
2:53 AM 46.9 °F 44.1 °F 90% 30.13 in 10.0 mi Calm Calm - N/A   Mostly Cloudy
3:53 AM 48.0 °F 44.1 °F 86% 30.12 in 10.0 mi Calm Calm - N/A   Mostly Cloudy
4:53 AM 50.0 °F 44.1 °F 80% 30.13 in 10.0 mi Calm Calm - N/A   Overcast
5:53 AM 51.1 °F 44.1 °F 77% 30.13 in 10.0 mi Calm Calm - N/A   Overcast
6:53 AM 51.1 °F 44.1 °F 77% 30.14 in 10.0 mi Calm Calm - N/A   Overcast
7:53 AM 51.1 °F 46.0 °F 83% 30.15 in 10.0 mi Calm Calm - N/A   Clear
8:53 AM 55.9 °F 43.0 °F 62% 30.17 in 10.0 mi SSE 3.5 mph - N/A   Clear
9:53 AM 61.0 °F 43.0 °F 52% 30.17 in 8.0 mi SSW 6.9 mph - N/A   Scattered Clouds
10:53 AM 64.9 °F 46.0 °F 50% 30.17 in 10.0 mi SSW 5.8 mph - N/A   Partly Cloudy
11:53 AM 68.0 °F 46.9 °F 47% 30.16 in 10.0 mi WSW 6.9 mph - N/A   Clear
12:53 PM 71.1 °F 46.9 °F 42% 30.12 in 10.0 mi Variable 4.6 mph - N/A   Clear
1:53 PM 71.1 °F 46.9 °F 42% 30.11 in 10.0 mi SW 6.9 mph - N/A   Scattered Clouds
2:53 PM 71.1 °F 48.9 °F 45% 30.11 in 10.0 mi SW 4.6 mph - N/A   Partly Cloudy
3:53 PM 69.1 °F 50.0 °F 51% 30.11 in 10.0 mi West 3.5 mph - N/A   Partly Cloudy
4:53 PM 66.9 °F 51.1 °F 57% 30.11 in 10.0 mi WSW 3.5 mph - N/A   Overcast
5:53 PM 64.0 °F 53.1 °F 67% 30.12 in 10.0 mi Calm Calm - N/A   Mostly Cloudy
6:53 PM 62.1 °F 55.0 °F 78% 30.13 in 10.0 mi NW 3.5 mph - 0.00 in Rain Light Rain
7:53 PM 61.0 °F 57.0 °F 87% 30.13 in 10.0 mi ESE 3.5 mph - 0.01 in Rain Light Rain
8:53 PM 60.1 °F 57.0 °F 90% 30.13 in 10.0 mi Calm Calm - 0.00 in   Overcast
9:53 PM 57.9 °F 55.9 °F 93% 30.14 in 7.0 mi Calm Calm - N/A   Overcast
10:53 PM 57.9 °F 55.9 °F 93% 30.14 in 8.0 mi Calm Calm - N/A   Partly Cloudy
11:53 PM 57.9 °F 55.0 °F 90% 30.13 in 8.0 mi Calm Calm - N/A   Mostly Cloudy